Wetterdaten: Sonntag, 13.10.2013
Datum Zeit Temp. Auen Feucht Auen Luftdruck Regen Richtung Richtung Windben
13.10.2013 00:00 6,8 C 91 % 1018,3 hPa 0,0 mm W 265 0,0 km/h (0 Bft)
13.10.2013 00:05 6,7 C 91 % 1018,3 hPa 0,0 mm W 265 0,0 km/h (0 Bft)
13.10.2013 00:10 6,7 C 91 % 1018,3 hPa 0,0 mm W 265 0,0 km/h (0 Bft)
13.10.2013 00:15 6,8 C 91 % 1018,3 hPa 0,0 mm W 265 0,0 km/h (0 Bft)
13.10.2013 00:20 6,8 C 91 % 1018,3 hPa 0,0 mm W 265 0,0 km/h (0 Bft)
13.10.2013 00:25 6,8 C 91 % 1018,4 hPa 0,0 mm W 265 0,0 km/h (0 Bft)
13.10.2013 00:30 6,8 C 91 % 1018,4 hPa 0,0 mm W 265 1,6 km/h (1 Bft)
13.10.2013 00:35 6,8 C 91 % 1018,3 hPa 0,0 mm W 265 0,0 km/h (0 Bft)
13.10.2013 00:40 6,8 C 91 % 1018,4 hPa 0,0 mm W 265 0,0 km/h (0 Bft)
13.10.2013 00:45 6,8 C 91 % 1018,4 hPa 0,0 mm W 265 0,0 km/h (0 Bft)
13.10.2013 00:50 6,7 C 91 % 1018,4 hPa 0,0 mm W 265 0,0 km/h (0 Bft)
13.10.2013 00:55 6,7 C 91 % 1018,4 hPa 0,0 mm W 265 0,0 km/h (0 Bft)
13.10.2013 01:00 6,8 C 91 % 1018,4 hPa 0,0 mm W 265 0,0 km/h (0 Bft)
13.10.2013 01:05 6,8 C 91 % 1018,4 hPa 0,0 mm W 265 0,0 km/h (0 Bft)
13.10.2013 01:10 6,8 C 91 % 1018,4 hPa 0,0 mm W 265 0,0 km/h (0 Bft)
13.10.2013 01:15 6,8 C 91 % 1018,5 hPa 0,0 mm W 265 0,0 km/h (0 Bft)
13.10.2013 01:20 6,8 C 91 % 1018,5 hPa 0,0 mm N 0 0,0 km/h (0 Bft)
13.10.2013 01:25 6,8 C 91 % 1018,5 hPa 0,0 mm N 0 0,0 km/h (0 Bft)
13.10.2013 01:30 6,8 C 91 % 1018,6 hPa 0,0 mm W 265 0,0 km/h (0 Bft)
13.10.2013 01:35 6,8 C 92 % 1018,6 hPa 0,0 mm W 265 0,0 km/h (0 Bft)
13.10.2013 01:40 6,8 C 92 % 1018,5 hPa 0,0 mm W 265 0,0 km/h (0 Bft)
13.10.2013 01:45 6,8 C 92 % 1018,5 hPa 0,0 mm W 265 0,0 km/h (0 Bft)
13.10.2013 01:50 6,7 C 92 % 1018,5 hPa 0,0 mm W 265 0,0 km/h (0 Bft)
13.10.2013 01:55 6,7 C 92 % 1018,5 hPa 0,0 mm W 265 0,0 km/h (0 Bft)
13.10.2013 02:00 6,7 C 92 % 1018,5 hPa 0,0 mm W 265 0,0 km/h (0 Bft)
13.10.2013 02:05 6,7 C 92 % 1018,6 hPa 0,0 mm W 265 0,0 km/h (0 Bft)
13.10.2013 02:10 6,7 C 92 % 1018,6 hPa 0,0 mm W 265 0,0 km/h (0 Bft)
13.10.2013 02:15 6,8 C 92 % 1018,5 hPa 0,0 mm W 265 0,0 km/h (0 Bft)
13.10.2013 02:20 6,8 C 92 % 1018,5 hPa 0,0 mm W 265 0,0 km/h (0 Bft)
13.10.2013 02:25 6,8 C 92 % 1018,3 hPa 0,0 mm W 265 0,0 km/h (0 Bft)
13.10.2013 02:30 6,8 C 92 % 1018,4 hPa 0,0 mm W 265 0,0 km/h (0 Bft)
13.10.2013 02:35 6,7 C 92 % 1018,3 hPa 0,0 mm W 265 0,0 km/h (0 Bft)
13.10.2013 02:40 6,8 C 92 % 1018,3 hPa 0,0 mm W 265 0,0 km/h (0 Bft)
13.10.2013 02:45 6,7 C 92 % 1018,2 hPa 0,0 mm W 265 0,0 km/h (0 Bft)
13.10.2013 02:50 6,7 C 92 % 1018,2 hPa 0,0 mm W 265 1,6 km/h (1 Bft)
13.10.2013 02:55 6,6 C 92 % 1018,0 hPa 0,0 mm W 265 1,6 km/h (1 Bft)
13.10.2013 03:00 6,3 C 92 % 1018,2 hPa 0,0 mm W 265 1,6 km/h (1 Bft)
13.10.2013 03:05 6,2 C 92 % 1018,2 hPa 0,0 mm W 265 0,0 km/h (0 Bft)
13.10.2013 03:10 6,2 C 92 % 1018,2 hPa 0,0 mm W 265 3,2 km/h (1 Bft)
13.10.2013 03:15 6,2 C 92 % 1018,1 hPa 0,0 mm W 265 3,2 km/h (1 Bft)
13.10.2013 03:20 6,1 C 91 % 1018,1 hPa 0,0 mm W 265 0,0 km/h (0 Bft)
13.10.2013 03:25 5,9 C 92 % 1018,2 hPa 0,0 mm W 265 0,0 km/h (0 Bft)
13.10.2013 03:30 6,0 C 92 % 1018,1 hPa 0,0 mm W 265 0,0 km/h (0 Bft)
13.10.2013 03:35 5,9 C 92 % 1018,0 hPa 0,0 mm W 265 0,0 km/h (0 Bft)
13.10.2013 03:40 5,8 C 92 % 1018,0 hPa 0,0 mm W 265 0,0 km/h (0 Bft)
13.10.2013 03:45 5,8 C 92 % 1018,0 hPa 0,0 mm W 265 0,0 km/h (0 Bft)
13.10.2013 03:50 5,8 C 92 % 1018,1 hPa 0,0 mm W 265 3,2 km/h (1 Bft)
13.10.2013 03:55 5,8 C 92 % 1018,2 hPa 0,0 mm W 265 0,0 km/h (0 Bft)
13.10.2013 04:00 5,7 C 92 % 1018,2 hPa 0,0 mm W 265 0,0 km/h (0 Bft)
13.10.2013 04:05 5,7 C 92 % 1018,3 hPa 0,0 mm W 265 0,0 km/h (0 Bft)
13.10.2013 04:10 5,7 C 92 % 1018,3 hPa 0,0 mm W 265 6,4 km/h (2 Bft)
13.10.2013 04:15 5,7 C 92 % 1018,3 hPa 0,0 mm W 267 4,8 km/h (1 Bft)
13.10.2013 04:20 5,6 C 92 % 1018,4 hPa 0,0 mm W 271 6,4 km/h (2 Bft)
13.10.2013 04:25 5,6 C 92 % 1018,4 hPa 0,0 mm W 264 4,8 km/h (1 Bft)
13.10.2013 04:30 5,6 C 92 % 1018,6 hPa 0,0 mm W-NW 287 6,4 km/h (2 Bft)
13.10.2013 04:35 5,7 C 92 % 1018,8 hPa 0,0 mm W 269 8,0 km/h (2 Bft)
13.10.2013 04:40 5,7 C 92 % 1018,9 hPa 0,0 mm W 270 6,4 km/h (2 Bft)
13.10.2013 04:45 5,8 C 92 % 1019,2 hPa 0,0 mm W 265 9,7 km/h (2 Bft)
13.10.2013 04:50 5,8 C 92 % 1019,3 hPa 0,0 mm W 273 9,7 km/h (2 Bft)
13.10.2013 04:55 5,9 C 92 % 1019,4 hPa 0,0 mm W 271 8,0 km/h (2 Bft)
13.10.2013 05:00 5,9 C 92 % 1019,7 hPa 0,0 mm W-NW 288 8,0 km/h (2 Bft)
13.10.2013 05:05 5,9 C 92 % 1019,8 hPa 0,0 mm N-NW 329 11,3 km/h (2 Bft)
13.10.2013 05:10 5,9 C 92 % 1020,1 hPa 0,0 mm W-NW 283 12,9 km/h (3 Bft)
13.10.2013 05:15 5,9 C 92 % 1020,3 hPa 0,0 mm W 261 16,1 km/h (3 Bft)
13.10.2013 05:20 5,9 C 92 % 1020,5 hPa 0,0 mm W 277 11,3 km/h (2 Bft)
13.10.2013 05:25 5,9 C 92 % 1020,5 hPa 0,0 mm W 275 8,0 km/h (2 Bft)
13.10.2013 05:30 5,9 C 91 % 1020,8 hPa 0,0 mm W 265 9,7 km/h (2 Bft)
13.10.2013 05:35 5,9 C 91 % 1020,9 hPa 0,0 mm W 278 11,3 km/h (2 Bft)
13.10.2013 05:40 5,9 C 91 % 1021,0 hPa 0,0 mm W 267 12,9 km/h (3 Bft)
13.10.2013 05:45 5,9 C 91 % 1021,2 hPa 0,0 mm W-NW 284 12,9 km/h (3 Bft)
13.10.2013 05:50 5,9 C 91 % 1021,3 hPa 0,0 mm W 277 12,9 km/h (3 Bft)
13.10.2013 05:55 5,9 C 91 % 1021,4 hPa 0,0 mm W 281 11,3 km/h (2 Bft)
13.10.2013 06:00 5,9 C 91 % 1021,5 hPa 0,0 mm W-NW 284 11,3 km/h (2 Bft)
13.10.2013 06:05 5,9 C 91 % 1021,6 hPa 0,0 mm W-NW 291 11,3 km/h (2 Bft)
13.10.2013 06:10 5,9 C 91 % 1021,8 hPa 0,0 mm W 281 14,5 km/h (3 Bft)
13.10.2013 06:15 5,9 C 91 % 1021,8 hPa 0,0 mm W-SW 253 12,9 km/h (3 Bft)
13.10.2013 06:20 5,8 C 91 % 1021,9 hPa 0,0 mm W-NW 284 12,9 km/h (3 Bft)
13.10.2013 06:25 5,8 C 91 % 1021,9 hPa 0,0 mm W 261 8,0 km/h (2 Bft)
13.10.2013 06:30 5,8 C 91 % 1022,1 hPa 0,0 mm W 278 8,0 km/h (2 Bft)
13.10.2013 06:35 5,9 C 91 % 1022,1 hPa 0,0 mm W 273 6,4 km/h (2 Bft)
13.10.2013 06:40 5,9 C 91 % 1022,1 hPa 0,0 mm W 273 4,8 km/h (1 Bft)
13.10.2013 06:45 5,9 C 91 % 1022,2 hPa 0,0 mm W 277 6,4 km/h (2 Bft)
13.10.2013 06:50 5,9 C 91 % 1022,1 hPa 0,0 mm W 271 4,8 km/h (1 Bft)
13.10.2013 06:55 5,8 C 91 % 1022,1 hPa 0,0 mm W 271 4,8 km/h (1 Bft)
13.10.2013 07:00 5,8 C 91 % 1022,4 hPa 0,0 mm W 271 4,8 km/h (1 Bft)
13.10.2013 07:05 5,8 C 91 % 1022,5 hPa 0,0 mm W 279 4,8 km/h (1 Bft)
13.10.2013 07:10 5,8 C 91 % 1022,5 hPa 0,0 mm W 279 4,8 km/h (1 Bft)
13.10.2013 07:15 5,7 C 91 % 1022,4 hPa 0,0 mm W 279 3,2 km/h (1 Bft)
13.10.2013 07:20 5,6 C 91 % 1022,5 hPa 0,0 mm W 279 1,6 km/h (1 Bft)
13.10.2013 07:25 5,4 C 91 % 1022,5 hPa 0,0 mm W 279 3,2 km/h (1 Bft)
13.10.2013 07:30 5,3 C 91 % 1022,6 hPa 0,0 mm W 279 4,8 km/h (1 Bft)
13.10.2013 07:35 5,1 C 91 % 1022,7 hPa 0,0 mm W 279 3,2 km/h (1 Bft)
13.10.2013 07:40 5,0 C 91 % 1022,8 hPa 0,0 mm W 279 0,0 km/h (0 Bft)
13.10.2013 07:45 4,8 C 91 % 1022,8 hPa 0,0 mm W 279 0,0 km/h (0 Bft)
13.10.2013 07:50 4,8 C 91 % 1022,9 hPa 0,0 mm W 279 0,0 km/h (0 Bft)
13.10.2013 07:55 4,7 C 91 % 1022,9 hPa 0,0 mm W 279 0,0 km/h (0 Bft)
13.10.2013 08:00 4,4 C 91 % 1022,9 hPa 0,0 mm W 279 0,0 km/h (0 Bft)
13.10.2013 08:05 4,6 C 92 % 1022,9 hPa 0,0 mm W 279 0,0 km/h (0 Bft)
13.10.2013 08:10 5,2 C 92 % 1023,0 hPa 0,0 mm W 279 0,0 km/h (0 Bft)
13.10.2013 08:15 5,3 C 91 % 1023,0 hPa 0,0 mm W 279 0,0 km/h (0 Bft)
13.10.2013 08:20 5,7 C 91 % 1023,1 hPa 0,0 mm W 279 0,0 km/h (0 Bft)
13.10.2013 08:25 5,1 C 91 % 1023,0 hPa 0,0 mm W 279 0,0 km/h (0 Bft)
13.10.2013 08:30 5,1 C 92 % 1023,2 hPa 0,0 mm W 279 0,0 km/h (0 Bft)
13.10.2013 08:35 5,4 C 91 % 1023,3 hPa 0,0 mm W 279 0,0 km/h (0 Bft)
13.10.2013 08:40 5,7 C 91 % 1023,3 hPa 0,0 mm W 279 0,0 km/h (0 Bft)
13.10.2013 08:45 5,7 C 91 % 1023,4 hPa 0,0 mm N 355 0,0 km/h (0 Bft)
13.10.2013 08:50 5,9 C 91 % 1023,3 hPa 0,0 mm N 355 0,0 km/h (0 Bft)
13.10.2013 08:55 6,2 C 90 % 1023,3 hPa 0,0 mm N 355 0,0 km/h (0 Bft)
13.10.2013 09:00 6,5 C 89 % 1023,3 hPa 0,0 mm N 355 0,0 km/h (0 Bft)
13.10.2013 09:05 6,4 C 89 % 1023,4 hPa 0,0 mm N 5 0,0 km/h (0 Bft)
13.10.2013 09:10 6,5 C 90 % 1023,4 hPa 0,0 mm O 85 0,0 km/h (0 Bft)
13.10.2013 09:15 6,7 C 88 % 1023,4 hPa 0,0 mm O 84 3,2 km/h (1 Bft)
13.10.2013 09:20 6,8 C 88 % 1023,4 hPa 0,0 mm O 84 3,2 km/h (1 Bft)
13.10.2013 09:25 7,0 C 88 % 1023,4 hPa 0,0 mm O 99 6,4 km/h (2 Bft)
13.10.2013 09:30 7,3 C 88 % 1023,3 hPa 0,0 mm O 88 8,0 km/h (2 Bft)
13.10.2013 09:35 7,4 C 87 % 1023,5 hPa 0,0 mm O-NO 62 8,0 km/h (2 Bft)
13.10.2013 09:40 7,4 C 87 % 1023,5 hPa 0,0 mm SO 138 9,7 km/h (2 Bft)
13.10.2013 09:45 7,5 C 86 % 1023,4 hPa 0,0 mm O 98 8,0 km/h (2 Bft)
13.10.2013 09:50 7,8 C 87 % 1023,4 hPa 0,0 mm O 89 8,0 km/h (2 Bft)
13.10.2013 09:55 7,9 C 86 % 1023,3 hPa 0,0 mm SO 124 8,0 km/h (2 Bft)
13.10.2013 10:00 8,1 C 86 % 1023,4 hPa 0,0 mm O-SO 115 6,4 km/h (2 Bft)
13.10.2013 10:05 8,2 C 86 % 1023,3 hPa 0,0 mm S-SO 159 8,0 km/h (2 Bft)
13.10.2013 10:10 8,5 C 85 % 1023,3 hPa 0,0 mm SO 126 6,4 km/h (2 Bft)
13.10.2013 10:15 8,7 C 85 % 1023,3 hPa 0,0 mm S-SO 157 4,8 km/h (1 Bft)
13.10.2013 10:20 8,8 C 84 % 1023,2 hPa 0,0 mm SO 128 4,8 km/h (1 Bft)
13.10.2013 10:25 8,8 C 83 % 1023,2 hPa 0,0 mm O-SO 118 6,4 km/h (2 Bft)
13.10.2013 10:30 9,1 C 85 % 1023,3 hPa 0,0 mm O-SO 116 6,4 km/h (2 Bft)
13.10.2013 10:35 9,2 C 84 % 1023,2 hPa 0,0 mm S-SO 153 6,4 km/h (2 Bft)
13.10.2013 10:40 9,4 C 83 % 1023,2 hPa 0,0 mm O 91 6,4 km/h (2 Bft)
13.10.2013 10:45 9,8 C 84 % 1023,3 hPa 0,0 mm SO 139 9,7 km/h (2 Bft)
13.10.2013 10:50 10,1 C 84 % 1023,2 hPa 0,0 mm O-SO 121 8,0 km/h (2 Bft)
13.10.2013 10:55 10,3 C 82 % 1023,1 hPa 0,0 mm SO 140 6,4 km/h (2 Bft)
13.10.2013 11:00 10,3 C 80 % 1023,1 hPa 0,0 mm O-SO 103 6,4 km/h (2 Bft)
13.10.2013 11:05 10,4 C 79 % 1023,1 hPa 0,0 mm SO 137 8,0 km/h (2 Bft)
13.10.2013 11:10 10,6 C 78 % 1023,0 hPa 0,0 mm O 91 8,0 km/h (2 Bft)
13.10.2013 11:15 10,6 C 78 % 1022,9 hPa 0,0 mm O 93 11,3 km/h (2 Bft)
13.10.2013 11:20 10,7 C 77 % 1022,9 hPa 0,0 mm O-SO 105 8,0 km/h (2 Bft)
13.10.2013 11:25 11,1 C 75 % 1022,8 hPa 0,0 mm S-SO 155 6,4 km/h (2 Bft)
13.10.2013 11:30 11,2 C 78 % 1022,7 hPa 0,0 mm S-SO 148 8,0 km/h (2 Bft)
13.10.2013 11:35 11,4 C 71 % 1022,6 hPa 0,0 mm S-SO 155 9,7 km/h (2 Bft)
13.10.2013 11:40 11,3 C 74 % 1022,6 hPa 0,0 mm O-SO 123 11,3 km/h (2 Bft)
13.10.2013 11:45 11,5 C 72 % 1022,5 hPa 0,0 mm S-SO 152 8,0 km/h (2 Bft)
13.10.2013 11:50 11,6 C 72 % 1022,3 hPa 0,0 mm O 91 9,7 km/h (2 Bft)
13.10.2013 11:55 11,7 C 74 % 1022,2 hPa 0,0 mm O 95 11,3 km/h (2 Bft)
13.10.2013 12:00 11,8 C 74 % 1022,2 hPa 0,0 mm O-NO 61 9,7 km/h (2 Bft)
13.10.2013 12:05 11,8 C 73 % 1022,0 hPa 0,0 mm O-SO 106 11,3 km/h (2 Bft)
13.10.2013 12:10 11,7 C 75 % 1022,0 hPa 0,0 mm O 80 12,9 km/h (3 Bft)
13.10.2013 12:15 11,9 C 75 % 1021,9 hPa 0,0 mm O-NO 60 8,0 km/h (2 Bft)
13.10.2013 12:20 12,0 C 74 % 1022,0 hPa 0,0 mm O-SO 117 12,9 km/h (3 Bft)
13.10.2013 12:25 12,1 C 72 % 1022,0 hPa 0,0 mm O-NO 78 12,9 km/h (3 Bft)
13.10.2013 12:30 12,1 C 73 % 1021,9 hPa 0,0 mm O 101 14,5 km/h (3 Bft)
13.10.2013 12:35 11,9 C 72 % 1021,7 hPa 0,0 mm O-SO 104 11,3 km/h (2 Bft)
13.10.2013 12:40 12,0 C 71 % 1021,6 hPa 0,0 mm SO 127 12,9 km/h (3 Bft)
13.10.2013 12:45 12,1 C 69 % 1021,6 hPa 0,0 mm SO 146 14,5 km/h (3 Bft)
13.10.2013 12:50 12,3 C 69 % 1021,6 hPa 0,0 mm O-SO 115 9,7 km/h (2 Bft)
13.10.2013 12:55 12,4 C 71 % 1021,5 hPa 0,0 mm SO 138 11,3 km/h (2 Bft)
13.10.2013 13:00 12,5 C 67 % 1021,4 hPa 0,0 mm O-SO 103 14,5 km/h (3 Bft)
13.10.2013 13:05 12,6 C 71 % 1021,2 hPa 0,0 mm O-SO 122 11,3 km/h (2 Bft)
13.10.2013 13:10 12,6 C 68 % 1021,1 hPa 0,0 mm O 96 11,3 km/h (2 Bft)
13.10.2013 13:15 12,7 C 68 % 1021,1 hPa 0,0 mm SO 139 9,7 km/h (2 Bft)
13.10.2013 13:20 12,8 C 66 % 1021,2 hPa 0,0 mm O-NO 77 8,0 km/h (2 Bft)
13.10.2013 13:25 13,1 C 66 % 1021,2 hPa 0,0 mm O-SO 121 11,3 km/h (2 Bft)
13.10.2013 13:30 13,2 C 65 % 1021,1 hPa 0,0 mm O-SO 113 9,7 km/h (2 Bft)
13.10.2013 13:35 13,3 C 65 % 1021,0 hPa 0,0 mm SO 136 11,3 km/h (2 Bft)
13.10.2013 13:40 13,3 C 65 % 1021,0 hPa 0,0 mm O-SO 113 12,9 km/h (3 Bft)
13.10.2013 13:45 13,6 C 63 % 1020,9 hPa 0,0 mm O-SO 108 9,7 km/h (2 Bft)
13.10.2013 13:50 13,4 C 63 % 1020,9 hPa 0,0 mm O 97 11,3 km/h (2 Bft)
13.10.2013 13:55 13,6 C 65 % 1020,8 hPa 0,0 mm O-NO 67 11,3 km/h (2 Bft)
13.10.2013 14:00 13,5 C 64 % 1020,8 hPa 0,0 mm S-SO 152 12,9 km/h (3 Bft)
13.10.2013 14:05 13,6 C 65 % 1020,8 hPa 0,0 mm O 94 12,9 km/h (3 Bft)
13.10.2013 14:10 13,7 C 66 % 1020,9 hPa 0,0 mm SO 141 12,9 km/h (3 Bft)
13.10.2013 14:15 13,6 C 65 % 1020,9 hPa 0,0 mm O 92 12,9 km/h (3 Bft)
13.10.2013 14:20 13,7 C 66 % 1021,0 hPa 0,0 mm SO 130 11,3 km/h (2 Bft)
13.10.2013 14:25 13,6 C 64 % 1020,8 hPa 0,0 mm O 101 11,3 km/h (2 Bft)
13.10.2013 14:30 13,6 C 65 % 1020,8 hPa 0,0 mm O-SO 116 14,5 km/h (3 Bft)
13.10.2013 14:35 13,6 C 65 % 1020,8 hPa 0,0 mm SO 141 12,9 km/h (3 Bft)
13.10.2013 14:40 13,7 C 66 % 1020,9 hPa 0,0 mm O 88 11,3 km/h (2 Bft)
13.10.2013 14:45 13,7 C 66 % 1020,9 hPa 0,0 mm SO 142 12,9 km/h (3 Bft)
13.10.2013 14:50 13,7 C 66 % 1020,9 hPa 0,0 mm SO 136 11,3 km/h (2 Bft)
13.10.2013 14:55 13,7 C 67 % 1020,9 hPa 0,0 mm SO 136 8,0 km/h (2 Bft)
13.10.2013 15:00 13,7 C 67 % 1020,9 hPa 0,0 mm O-SO 108 12,9 km/h (3 Bft)
13.10.2013 15:05 13,7 C 65 % 1020,9 hPa 0,0 mm O-SO 103 12,9 km/h (3 Bft)
13.10.2013 15:10 13,7 C 66 % 1020,9 hPa 0,0 mm SO 138 11,3 km/h (2 Bft)
13.10.2013 15:15 13,6 C 65 % 1020,8 hPa 0,0 mm O-SO 115 12,9 km/h (3 Bft)
13.10.2013 15:20 13,6 C 65 % 1020,8 hPa 0,0 mm O-SO 114 12,9 km/h (3 Bft)
13.10.2013 15:25 13,6 C 67 % 1020,7 hPa 0,0 mm O-SO 115 11,3 km/h (2 Bft)
13.10.2013 15:30 13,6 C 67 % 1020,6 hPa 0,0 mm O-SO 105 12,9 km/h (3 Bft)
13.10.2013 15:35 13,6 C 68 % 1020,6 hPa 0,0 mm O 91 9,7 km/h (2 Bft)
13.10.2013 15:40 13,6 C 69 % 1020,6 hPa 0,0 mm O-NO 57 12,9 km/h (3 Bft)
13.10.2013 15:45 13,6 C 69 % 1020,7 hPa 0,0 mm O-SO 109 11,3 km/h (2 Bft)
13.10.2013 15:50 13,4 C 67 % 1020,7 hPa 0,0 mm SO 130 12,9 km/h (3 Bft)
13.10.2013 15:55 13,4 C 69 % 1020,6 hPa 0,0 mm SO 138 9,7 km/h (2 Bft)
13.10.2013 16:00 13,4 C 69 % 1020,6 hPa 0,0 mm O 94 11,3 km/h (2 Bft)
13.10.2013 16:05 13,4 C 70 % 1020,6 hPa 0,0 mm O-SO 104 11,3 km/h (2 Bft)
13.10.2013 16:10 13,3 C 69 % 1020,6 hPa 0,0 mm O 97 12,9 km/h (3 Bft)
13.10.2013 16:15 13,3 C 70 % 1020,6 hPa 0,0 mm O-SO 108 11,3 km/h (2 Bft)
13.10.2013 16:20 13,2 C 69 % 1020,5 hPa 0,0 mm O-SO 107 12,9 km/h (3 Bft)
13.10.2013 16:25 13,1 C 70 % 1020,5 hPa 0,0 mm O 98 9,7 km/h (2 Bft)
13.10.2013 16:30 13,0 C 71 % 1020,5 hPa 0,0 mm SO 136 11,3 km/h (2 Bft)
13.10.2013 16:35 12,9 C 71 % 1020,6 hPa 0,0 mm O 84 11,3 km/h (2 Bft)
13.10.2013 16:40 12,8 C 70 % 1020,5 hPa 0,0 mm O 97 11,3 km/h (2 Bft)
13.10.2013 16:45 12,7 C 72 % 1020,5 hPa 0,0 mm O 85 11,3 km/h (2 Bft)
13.10.2013 16:50 12,6 C 72 % 1020,5 hPa 0,0 mm O 84 8,0 km/h (2 Bft)
13.10.2013 16:55 12,6 C 72 % 1020,5 hPa 0,0 mm O-SO 104 9,7 km/h (2 Bft)
13.10.2013 17:00 12,6 C 72 % 1020,5 hPa 0,0 mm O-SO 102 8,0 km/h (2 Bft)
13.10.2013 17:05 12,5 C 73 % 1020,6 hPa 0,0 mm O 96 8,0 km/h (2 Bft)
13.10.2013 17:10 12,3 C 73 % 1020,5 hPa 0,0 mm O-SO 110 6,4 km/h (2 Bft)
13.10.2013 17:15 12,2 C 74 % 1020,5 hPa 0,0 mm SO 131 6,4 km/h (2 Bft)
13.10.2013 17:20 11,8 C 76 % 1020,5 hPa 0,0 mm O-SO 111 6,4 km/h (2 Bft)
13.10.2013 17:25 11,5 C 77 % 1020,6 hPa 0,0 mm SO 125 9,7 km/h (2 Bft)
13.10.2013 17:30 11,3 C 78 % 1020,6 hPa 0,0 mm O 94 8,0 km/h (2 Bft)
13.10.2013 17:35 11,1 C 79 % 1020,5 hPa 0,0 mm O-SO 110 6,4 km/h (2 Bft)
13.10.2013 17:40 10,9 C 80 % 1020,5 hPa 0,0 mm O 98 6,4 km/h (2 Bft)
13.10.2013 17:45 10,7 C 80 % 1020,5 hPa 0,0 mm O-SO 115 6,4 km/h (2 Bft)
13.10.2013 17:50 10,6 C 81 % 1020,7 hPa 0,0 mm O-SO 107 8,0 km/h (2 Bft)
13.10.2013 17:55 10,4 C 81 % 1020,8 hPa 0,0 mm SO 129 4,8 km/h (1 Bft)
13.10.2013 18:00 10,3 C 81 % 1020,8 hPa 0,0 mm SO 129 4,8 km/h (1 Bft)
13.10.2013 18:05 10,2 C 82 % 1020,9 hPa 0,0 mm O-SO 115 6,4 km/h (2 Bft)
13.10.2013 18:10 9,8 C 83 % 1020,9 hPa 0,0 mm SO 130 4,8 km/h (1 Bft)
13.10.2013 18:15 9,6 C 83 % 1020,9 hPa 0,0 mm SO 139 4,8 km/h (1 Bft)
13.10.2013 18:20 9,2 C 83 % 1020,9 hPa 0,0 mm SO 138 3,2 km/h (1 Bft)
13.10.2013 18:25 8,7 C 85 % 1020,9 hPa 0,0 mm SO 138 0,0 km/h (0 Bft)
13.10.2013 18:30 8,6 C 86 % 1021,0 hPa 0,0 mm SO 138 0,0 km/h (0 Bft)
13.10.2013 18:35 8,3 C 86 % 1021,0 hPa 0,0 mm SO 138 1,6 km/h (1 Bft)
13.10.2013 18:40 8,3 C 87 % 1021,1 hPa 0,0 mm SO 138 1,6 km/h (1 Bft)
13.10.2013 18:45 8,2 C 87 % 1021,1 hPa 0,0 mm SO 138 1,6 km/h (1 Bft)
13.10.2013 18:50 8,1 C 87 % 1021,3 hPa 0,0 mm SO 138 0,0 km/h (0 Bft)
13.10.2013 18:55 7,9 C 88 % 1021,3 hPa 0,0 mm SO 138 0,0 km/h (0 Bft)
13.10.2013 19:00 7,7 C 88 % 1021,4 hPa 0,0 mm SO 138 0,0 km/h (0 Bft)
13.10.2013 19:05 7,4 C 88 % 1021,4 hPa 0,0 mm SO 138 0,0 km/h (0 Bft)
13.10.2013 19:10 7,3 C 89 % 1021,4 hPa 0,0 mm SO 138 0,0 km/h (0 Bft)
13.10.2013 19:15 7,1 C 89 % 1021,5 hPa 0,0 mm SO 138 0,0 km/h (0 Bft)
13.10.2013 19:20 6,9 C 90 % 1021,6 hPa 0,0 mm SO 138 0,0 km/h (0 Bft)
13.10.2013 19:25 6,6 C 89 % 1021,6 hPa 0,0 mm SO 138 0,0 km/h (0 Bft)
13.10.2013 19:30 6,4 C 90 % 1021,6 hPa 0,0 mm SO 138 0,0 km/h (0 Bft)
13.10.2013 19:35 6,5 C 90 % 1021,6 hPa 0,0 mm SO 138 0,0 km/h (0 Bft)
13.10.2013 19:40 6,3 C 90 % 1021,6 hPa 0,0 mm SO 138 0,0 km/h (0 Bft)
13.10.2013 19:45 6,1 C 90 % 1021,7 hPa 0,0 mm SO 138 0,0 km/h (0 Bft)
13.10.2013 19:50 5,9 C 91 % 1021,7 hPa 0,0 mm SO 138 0,0 km/h (0 Bft)
13.10.2013 19:55 6,0 C 91 % 1021,8 hPa 0,0 mm SO 138 0,0 km/h (0 Bft)
13.10.2013 20:00 6,1 C 92 % 1021,8 hPa 0,0 mm SO 138 0,0 km/h (0 Bft)
13.10.2013 20:05 5,8 C 91 % 1021,9 hPa 0,0 mm SO 138 0,0 km/h (0 Bft)
13.10.2013 20:10 5,5 C 92 % 1021,9 hPa 0,0 mm SO 138 0,0 km/h (0 Bft)
13.10.2013 20:15 5,4 C 92 % 1021,9 hPa 0,0 mm SO 138 0,0 km/h (0 Bft)
13.10.2013 20:20 5,5 C 92 % 1022,0 hPa 0,0 mm SO 138 0,0 km/h (0 Bft)
13.10.2013 20:25 5,3 C 92 % 1022,0 hPa 0,0 mm SO 138 0,0 km/h (0 Bft)
13.10.2013 20:30 5,5 C 92 % 1021,9 hPa 0,0 mm SO 138 0,0 km/h (0 Bft)
13.10.2013 20:35 5,3 C 92 % 1022,0 hPa 0,0 mm SO 138 0,0 km/h (0 Bft)
13.10.2013 20:40 5,0 C 92 % 1021,9 hPa 0,0 mm SO 138 0,0 km/h (0 Bft)
13.10.2013 20:45 5,0 C 92 % 1021,8 hPa 0,0 mm SO 138 0,0 km/h (0 Bft)
13.10.2013 20:50 5,1 C 92 % 1021,8 hPa 0,0 mm SO 138 0,0 km/h (0 Bft)
13.10.2013 20:55 4,9 C 92 % 1021,8 hPa 0,0 mm SO 138 0,0 km/h (0 Bft)
13.10.2013 21:00 5,1 C 92 % 1021,9 hPa 0,0 mm SO 138 0,0 km/h (0 Bft)
13.10.2013 21:05 5,0 C 92 % 1021,8 hPa 0,0 mm SO 138 0,0 km/h (0 Bft)
13.10.2013 21:10 4,9 C 92 % 1021,9 hPa 0,0 mm SO 138 0,0 km/h (0 Bft)
13.10.2013 21:15 5,1 C 92 % 1021,9 hPa 0,0 mm SO 138 0,0 km/h (0 Bft)
13.10.2013 21:20 5,1 C 92 % 1022,0 hPa 0,0 mm SO 138 0,0 km/h (0 Bft)
13.10.2013 21:25 5,0 C 92 % 1022,0 hPa 0,0 mm SO 138 0,0 km/h (0 Bft)
13.10.2013 21:30 4,8 C 92 % 1022,1 hPa 0,0 mm SO 138 0,0 km/h (0 Bft)
13.10.2013 21:35 4,7 C 92 % 1022,1 hPa 0,0 mm S 176 0,0 km/h (0 Bft)
13.10.2013 21:40 4,7 C 92 % 1022,1 hPa 0,0 mm S-SW 196 0,0 km/h (0 Bft)
13.10.2013 21:45 4,5 C 92 % 1022,2 hPa 0,0 mm S-SW 196 0,0 km/h (0 Bft)
13.10.2013 21:50 4,3 C 92 % 1022,2 hPa 0,0 mm S-SW 196 0,0 km/h (0 Bft)
13.10.2013 21:55 4,2 C 92 % 1022,2 hPa 0,0 mm S-SW 196 0,0 km/h (0 Bft)
13.10.2013 22:00 4,1 C 92 % 1022,3 hPa 0,0 mm S-SW 196 0,0 km/h (0 Bft)
13.10.2013 22:05 4,0 C 92 % 1022,4 hPa 0,0 mm S-SW 196 0,0 km/h (0 Bft)
13.10.2013 22:10 3,8 C 92 % 1022,4 hPa 0,0 mm S-SW 196 0,0 km/h (0 Bft)
13.10.2013 22:15 3,7 C 92 % 1022,2 hPa 0,0 mm S-SW 197 1,6 km/h (1 Bft)
13.10.2013 22:20 3,7 C 92 % 1022,2 hPa 0,0 mm S-SW 197 0,0 km/h (0 Bft)
13.10.2013 22:25 3,6 C 92 % 1022,2 hPa 0,0 mm S-SW 197 0,0 km/h (0 Bft)
13.10.2013 22:30 3,6 C 92 % 1022,2 hPa 0,0 mm S-SW 197 0,0 km/h (0 Bft)
13.10.2013 22:35 3,6 C 92 % 1022,2 hPa 0,0 mm S-SW 197 0,0 km/h (0 Bft)
13.10.2013 22:40 3,6 C 92 % 1022,2 hPa 0,0 mm S-SW 197 0,0 km/h (0 Bft)
13.10.2013 22:45 3,7 C 92 % 1022,2 hPa 0,0 mm S-SW 197 0,0 km/h (0 Bft)
13.10.2013 22:50 3,8 C 92 % 1022,2 hPa 0,0 mm S-SW 197 0,0 km/h (0 Bft)
13.10.2013 22:55 3,7 C 92 % 1022,2 hPa 0,0 mm S-SW 197 0,0 km/h (0 Bft)
13.10.2013 23:00 3,3 C 92 % 1022,2 hPa 0,0 mm S-SW 197 1,6 km/h (1 Bft)
13.10.2013 23:05 3,4 C 92 % 1022,3 hPa 0,0 mm S-SW 200 3,2 km/h (1 Bft)
13.10.2013 23:10 3,5 C 92 % 1022,3 hPa 0,0 mm S-SW 200 1,6 km/h (1 Bft)
13.10.2013 23:15 3,2 C 92 % 1022,2 hPa 0,0 mm S-SW 200 0,0 km/h (0 Bft)
13.10.2013 23:20 3,1 C 92 % 1022,2 hPa 0,0 mm S-SW 200 0,0 km/h (0 Bft)
13.10.2013 23:25 2,9 C 92 % 1022,2 hPa 0,0 mm S-SW 200 0,0 km/h (0 Bft)
13.10.2013 23:30 3,0 C 92 % 1022,1 hPa 0,0 mm S-SW 200 1,6 km/h (1 Bft)
13.10.2013 23:35 3,1 C 92 % 1022,1 hPa 0,0 mm S-SW 200 1,6 km/h (1 Bft)
13.10.2013 23:40 3,2 C 92 % 1022,1 hPa 0,0 mm S-SW 200 0,0 km/h (0 Bft)
13.10.2013 23:45 3,2 C 92 % 1022,1 hPa 0,0 mm S-SW 200 0,0 km/h (0 Bft)
13.10.2013 23:50 3,0 C 92 % 1022,1 hPa 0,0 mm S-SW 200 0,0 km/h (0 Bft)
13.10.2013 23:55 3,0 C 93 % 1022,0 hPa 0,0 mm S-SW 200 0,0 km/h (0 Bft)
_ Min-Zeit 23:25 13:45 02:55 - - - 00:00
Minimum _ 2,9 C 63 % 1018,0 hPa - - - 0,0 km/h (0 Bft)
_ Max-Zeit 15:05 23:55 09:35 00:00 - - 05:15
Maximum _ 13,8 C 93 % 1023,5 hPa 0,0 mm - - 16,1 km/h
W (3 Bft)
Durchschnitt _ 8,0 C 85 % 1021,1 hPa #0,0 mm W - 5,0 km/h (1 Bft)